| time (UTC) | temp C | wind direction | speed KPH | gust KPH | rain 1hr cm | rain 24hr cm | rain mn cm | humidity % | barometer mb |
| 20260509135001 | 13 | 127 | 4.8 | 12.9 | 0.00 | 0.00 | 0.00 | 76 | 1008.3 |
| 20260509134502 | 13 | 135 | 3.2 | 9.7 | 0.00 | 0.00 | 0.00 | 76 | 1008.5 |
| 20260509133501 | 12 | 177 | 3.2 | 8.0 | 0.00 | 0.00 | 0.00 | 79 | 1008.7 |
| 20260509133002 | 12 | 136 | 3.2 | 9.7 | 0.00 | 0.00 | 0.00 | 78 | 1008.7 |
| 20260509132501 | 12 | 111 | 6.4 | 9.7 | 0.00 | 0.00 | 0.00 | 77 | 1008.8 |
| 20260509132001 | 12 | 124 | 8.0 | 11.3 | 0.00 | 0.00 | 0.00 | 78 | 1008.8 |
| 20260509131502 | 12 | 121 | 3.2 | 11.3 | 0.00 | 0.00 | 0.00 | 79 | 1008.8 |
| 20260509131002 | 11 | 148 | 1.6 | 4.8 | 0.00 | 0.00 | 0.00 | 79 | 1008.9 |
| 20260509130001 | 11 | 179 | 3.2 | 4.8 | 0.00 | 0.03 | 0.00 | 79 | 1008.9 |
| 20260509125001 | 11 | 151 | 1.6 | 3.2 | 0.00 | 0.03 | 0.00 | 81 | 1008.9 |
| 20260509124502 | 10 | 158 | 4.8 | 9.7 | 0.00 | 0.03 | 0.00 | 80 | 1008.9 |
| 20260509124002 | 10 | 133 | 3.2 | 9.7 | 0.00 | 0.03 | 0.00 | 80 | 1008.9 |
| 20260509123502 | 10 | 146 | 3.2 | 8.0 | 0.00 | 0.03 | 0.00 | 81 | 1009.0 |
| 20260509122002 | 9 | 158 | 3.2 | 9.7 | 0.00 | 0.03 | 0.00 | 80 | 1009.2 |
| 20260509121502 | 9 | 152 | 3.2 | 9.7 | 0.00 | 0.03 | 0.00 | 81 | 1009.2 |
| 20260509120501 | 8 | 149 | 3.2 | 4.8 | 0.00 | 0.03 | 0.00 | 82 | 1009.2 |
| 20260509120002 | 8 | 143 | 1.6 | 8.0 | 0.00 | 0.03 | 0.00 | 82 | 1009.1 |
| 20260509115503 | 7 | 146 | 3.2 | 8.0 | 0.00 | 0.03 | 0.00 | 82 | 1009.2 |
| 20260509115002 | 7 | 143 | 1.6 | 8.0 | 0.00 | 0.03 | 0.00 | 82 | 1009.2 |
| 20260509114501 | 7 | 153 | 1.6 | 4.8 | 0.00 | 0.03 | 0.00 | 82 | 1009.2 |
| 20260509114002 | 7 | 145 | 1.6 | 4.8 | 0.00 | 0.03 | 0.00 | 83 | 1009.2 |
| 20260509113501 | 7 | 138 | 3.2 | 9.7 | 0.00 | 0.03 | 0.00 | 83 | 1009.2 |
| 20260509113002 | 7 | 133 | 3.2 | 9.7 | 0.00 | 0.03 | 0.00 | 83 | 1009.2 |
| 20260509112501 | 7 | 155 | 3.2 | 11.3 | 0.00 | 0.03 | 0.00 | 83 | 1009.2 |
| 20260509112002 | 7 | 149 | 1.6 | 8.0 | 0.00 | 0.03 | 0.00 | 84 | 1009.2 |
| 20260509105502 | 6 | 158 | 1.6 | 8.0 | 0.00 | 0.05 | 0.00 | 84 | 1009.1 |
| 20260509105002 | 6 | 165 | 3.2 | 12.9 | 0.00 | 0.05 | 0.00 | 84 | 1009.1 |
| 20260509104502 | 6 | 190 | 3.2 | 8.0 | 0.00 | 0.05 | 0.00 | 84 | 1009.1 |
| 20260509104002 | 6 | 162 | 1.6 | 3.2 | 0.00 | 0.05 | 0.00 | 84 | 1009.1 |
| 20260509103502 | 6 | 150 | 3.2 | 4.8 | 0.00 | 0.05 | 0.00 | 84 | 1009.1 |
| 20260509103002 | 6 | 151 | 1.6 | 4.8 | 0.00 | 0.05 | 0.00 | 84 | 1009.0 |
| 20260509102502 | 6 | 148 | 1.6 | 4.8 | 0.00 | 0.05 | 0.00 | 83 | 1009.0 |
| 20260509102002 | 5 | 153 | 3.2 | 8.0 | 0.00 | 0.05 | 0.00 | 83 | 1008.9 |
| 20260509101502 | 5 | 149 | 1.6 | 4.8 | 0.00 | 0.05 | 0.00 | 83 | 1009.0 |
| 20260509101002 | 5 | 169 | 3.2 | 4.8 | 0.00 | 0.05 | 0.00 | 83 | 1009.1 |
| 20260509100501 | 5 | 155 | 1.6 | 4.8 | 0.00 | 0.05 | 0.00 | 83 | 1009.1 |
| 20260509100002 | 5 | 147 | 1.6 | 4.8 | 0.00 | 0.05 | 0.00 | 83 | 1009.1 |
| 20260509095502 | 5 | 143 | 1.6 | 3.2 | 0.00 | 0.05 | 0.00 | 83 | 1009.1 |
| 20260509095002 | 5 | 162 | 0.0 | 3.2 | 0.00 | 0.05 | 0.00 | 82 | 1009.1 |
| 20260509094502 | 5 | 150 | 0.0 | 3.2 | 0.00 | 0.05 | 0.00 | 81 | 1009.0 |
| 20260509094003 | 5 | 143 | 1.6 | 1.6 | 0.00 | 0.05 | 0.00 | 81 | 1009.0 |
| 20260509093003 | 5 | 160 | 0.0 | 1.6 | 0.00 | 0.05 | 0.00 | 80 | 1009.1 |
| 20260509092502 | 5 | 167 | 0.0 | 4.8 | 0.00 | 0.05 | 0.00 | 80 | 1009.1 |
| 20260509092002 | 5 | 135 | 1.6 | 3.2 | 0.00 | 0.05 | 0.00 | 80 | 1009.1 |
| 20260509091502 | 5 | 147 | 0.0 | 3.2 | 0.00 | 0.05 | 0.00 | 80 | 1009.2 |
| 20260509091002 | 5 | 193 | 1.6 | 4.8 | 0.00 | 0.05 | 0.00 | 80 | 1009.2 |
| 20260509090502 | 5 | 153 | 1.6 | 3.2 | 0.00 | 0.05 | 0.00 | 80 | 1009.2 |
| 20260509090002 | 5 | 141 | 0.0 | 3.2 | 0.00 | 0.05 | 0.00 | 80 | 1009.1 |
| 20260509085002 | 5 | 193 | 1.6 | 8.0 | 0.00 | 0.05 | 0.00 | 79 | 1009.2 |
| 20260509084502 | 5 | 181 | 1.6 | 4.8 | 0.00 | 0.05 | 0.00 | 80 | 1009.3 |
| 20260509084002 | 5 | 144 | 1.6 | 4.8 | 0.00 | 0.05 | 0.00 | 80 | 1009.4 |
| 20260509083502 | 5 | 144 | 1.6 | 4.8 | 0.00 | 0.05 | 0.00 | 80 | 1009.5 |
| 20260509083003 | 5 | 128 | 1.6 | 3.2 | 0.00 | 0.05 | 0.00 | 81 | 1009.6 |
| 20260509082502 | 5 | 184 | 1.6 | 4.8 | 0.00 | 0.05 | 0.00 | 81 | 1009.6 |
| 20260509082002 | 5 | 158 | 0.0 | 3.2 | 0.00 | 0.05 | 0.00 | 81 | 1009.6 |
| 20260509081502 | 4 | 149 | 1.6 | 8.0 | 0.00 | 0.08 | 0.00 | 82 | 1009.7 |
| 20260509081003 | 4 | 178 | 1.6 | 3.2 | 0.00 | 0.08 | 0.00 | 82 | 1009.7 |
| 20260509080502 | 4 | 141 | 1.6 | 1.6 | 0.00 | 0.08 | 0.00 | 82 | 1009.8 |
| 20260509080002 | 4 | 155 | 0.0 | 4.8 | 0.00 | 0.08 | 0.00 | 81 | 1009.8 |
| 20260509075502 | 4 | 188 | 0.0 | 1.6 | 0.00 | 0.08 | 0.00 | 81 | 1009.9 |
| 20260509075002 | 4 | 147 | 0.0 | 0.0 | 0.00 | 0.08 | 0.00 | 81 | 1009.8 |
| 20260509074502 | 5 | 147 | 0.0 | 1.6 | 0.00 | 0.08 | 0.00 | 80 | 1009.9 |
| 20260509074002 | 5 | 141 | 0.0 | 0.0 | 0.00 | 0.08 | 0.00 | 80 | 1009.9 |
| 20260509073002 | 5 | 174 | 0.0 | 0.0 | 0.00 | 0.08 | 0.00 | 79 | 1010.1 |
| 20260509072502 | 5 | 174 | 0.0 | 3.2 | 0.00 | 0.08 | 0.00 | 79 | 1010.1 |
| 20260509072002 | 5 | 219 | 1.6 | 4.8 | 0.00 | 0.08 | 0.00 | 80 | 1010.2 |
| 20260509071002 | 5 | 140 | 1.6 | 4.8 | 0.00 | 0.08 | 0.00 | 81 | 1010.2 |
| 20260509070503 | 4 | 183 | 1.6 | 4.8 | 0.00 | 0.08 | 0.00 | 82 | 1010.3 |
| 20260509070002 | 4 | 160 | 0.0 | 0.0 | 0.00 | 0.08 | 0.00 | 82 | 1010.4 |
| 20260509065502 | 4 | 147 | 0.0 | 0.0 | 0.00 | 0.08 | 0.00 | 81 | 1010.4 |
| 20260509065003 | 4 | 146 | 0.0 | 0.0 | 0.00 | 0.08 | 0.00 | 81 | 1010.4 |
| 20260509064502 | 4 | 146 | 0.0 | 0.0 | 0.00 | 0.08 | 0.00 | 81 | 1010.4 |
| 20260509063502 | 4 | 146 | 0.0 | 0.0 | 0.00 | 0.08 | 0.00 | 82 | 1010.5 |
| 20260509062502 | 4 | 152 | 0.0 | 0.0 | 0.00 | 0.08 | 0.00 | 82 | 1010.7 |
| 20260509062002 | 4 | 146 | 0.0 | 0.0 | 0.00 | 0.08 | 0.00 | 83 | 1010.6 |
| 20260509061502 | 3 | 146 | 0.0 | 1.6 | 0.00 | 0.08 | 0.00 | 83 | 1010.7 |
| 20260509061002 | 3 | 151 | 0.0 | 0.0 | 0.00 | 0.08 | 0.00 | 83 | 1010.9 |
| 20260509060502 | 3 | 153 | 0.0 | 1.6 | 0.00 | 0.08 | 0.00 | 83 | 1010.9 |
| 20260509060003 | 3 | 148 | 0.0 | 0.0 | 0.00 | 0.08 | 0.00 | 82 | 1010.9 |
| 20260509055502 | 4 | 148 | 0.0 | 0.0 | 0.00 | 0.08 | 0.00 | 82 | 1011.0 |
| 20260509054502 | 4 | 148 | 0.0 | 0.0 | 0.00 | 0.08 | 0.00 | 81 | 1011.0 |
| 20260509054003 | 4 | 148 | 0.0 | 0.0 | 0.00 | 0.08 | 0.00 | 81 | 1011.2 |
| 20260509053502 | 4 | 148 | 0.0 | 0.0 | 0.00 | 0.08 | 0.00 | 81 | 1011.2 |
| 20260509053003 | 4 | 148 | 0.0 | 0.0 | 0.00 | 0.08 | 0.00 | 81 | 1011.2 |
| 20260509052503 | 5 | 148 | 0.0 | 0.0 | 0.00 | 0.08 | 0.00 | 81 | 1011.2 |
| 20260509052002 | 5 | 148 | 0.0 | 0.0 | 0.00 | 0.08 | 0.00 | 81 | 1011.3 |
| 20260509051503 | 5 | 148 | 0.0 | 0.0 | 0.00 | 0.08 | 0.00 | 81 | 1011.3 |
| 20260509051002 | 5 | 148 | 0.0 | 0.0 | 0.00 | 0.08 | 0.00 | 82 | 1011.3 |
| 20260509050503 | 5 | 156 | 0.0 | 0.0 | 0.00 | 0.08 | 0.00 | 83 | 1011.3 |
| 20260509045503 | 4 | 147 | 0.0 | 1.6 | 0.00 | 0.08 | 0.00 | 83 | 1011.4 |
| 20260509045002 | 3 | 147 | 0.0 | 1.6 | 0.00 | 0.08 | 0.00 | 84 | 1011.3 |
| 20260509044503 | 3 | 152 | 0.0 | 0.0 | 0.00 | 0.08 | 0.00 | 83 | 1011.4 |
| 20260509044002 | 3 | 152 | 0.0 | 0.0 | 0.00 | 0.08 | 0.00 | 84 | 1011.4 |
| 20260509043503 | 3 | 152 | 0.0 | 0.0 | 0.00 | 0.08 | 0.00 | 84 | 1011.5 |
| 20260509043003 | 4 | 152 | 0.0 | 0.0 | 0.00 | 0.08 | 0.00 | 83 | 1011.6 |
| 20260509042003 | 4 | 152 | 0.0 | 0.0 | 0.00 | 0.08 | 0.00 | 83 | 1011.6 |
| 20260509041502 | 4 | 152 | 0.0 | 0.0 | 0.00 | 0.08 | 0.00 | 83 | 1011.6 |
| 20260509041002 | 4 | 152 | 0.0 | 0.0 | 0.00 | 0.08 | 0.00 | 82 | 1011.6 |
| 20260509040503 | 4 | 152 | 0.0 | 0.0 | 0.00 | 0.08 | 0.00 | 83 | 1011.7 |
| 20260509040003 | 4 | 152 | 0.0 | 1.6 | 0.00 | 0.08 | 0.00 | 82 | 1011.7 |
| 20260509035502 | 4 | 143 | 0.0 | 0.0 | 0.00 | 0.08 | 0.08 | 82 | 1011.7 |
| 20260509035003 | 4 | 143 | 0.0 | 1.6 | 0.00 | 0.08 | 0.08 | 82 | 1011.7 |
| 20260509034502 | 5 | 143 | 0.0 | 0.0 | 0.00 | 0.08 | 0.08 | 81 | 1011.8 |
| 20260509034003 | 5 | 143 | 0.0 | 0.0 | 0.00 | 0.08 | 0.08 | 81 | 1011.8 |
| 20260509033503 | 5 | 143 | 0.0 | 0.0 | 0.00 | 0.08 | 0.08 | 80 | 1011.8 |
| 20260509032002 | 5 | 143 | 0.0 | 1.6 | 0.00 | 0.08 | 0.08 | 79 | 1011.8 |
| 20260509031503 | 5 | 149 | 0.0 | 3.2 | 0.00 | 0.08 | 0.08 | 78 | 1011.8 |
| 20260509031002 | 5 | 137 | 1.6 | 1.6 | 0.00 | 0.08 | 0.08 | 78 | 1011.8 |
| 20260509030003 | 5 | 155 | 0.0 | 1.6 | 0.00 | 0.08 | 0.08 | 79 | 1011.9 |
| 20260509025502 | 5 | 155 | 0.0 | 3.2 | 0.00 | 0.08 | 0.08 | 80 | 1011.9 |
| 20260509025003 | 5 | 137 | 0.0 | 1.6 | 0.00 | 0.08 | 0.08 | 80 | 1011.8 |
| 20260509024003 | 5 | 139 | 1.6 | 3.2 | 0.00 | 0.08 | 0.08 | 80 | 1011.9 |
| 20260509023502 | 5 | 167 | 1.6 | 4.8 | 0.00 | 0.08 | 0.08 | 80 | 1011.9 |
| 20260509022503 | 5 | 153 | 0.0 | 1.6 | 0.00 | 0.08 | 0.08 | 82 | 1011.9 |
| 20260509022003 | 5 | 163 | 0.0 | 3.2 | 0.00 | 0.08 | 0.08 | 82 | 1011.9 |
| 20260509021502 | 5 | 152 | 0.0 | 1.6 | 0.00 | 0.08 | 0.08 | 83 | 1012.0 |
| 20260509021003 | 5 | 147 | 0.0 | 0.0 | 0.00 | 0.08 | 0.08 | 83 | 1012.0 |
| 20260509020503 | 5 | 155 | 0.0 | 0.0 | 0.00 | 0.08 | 0.08 | 82 | 1012.0 |
| 20260509020003 | 5 | 158 | 0.0 | 0.0 | 0.00 | 0.08 | 0.08 | 81 | 1012.1 |
| 20260509015503 | 5 | 158 | 0.0 | 0.0 | 0.00 | 0.08 | 0.08 | 80 | 1012.1 |
| 20260509015003 | 5 | 158 | 0.0 | 0.0 | 0.00 | 0.08 | 0.08 | 80 | 1012.0 |
| 20260509013502 | 6 | 158 | 0.0 | 0.0 | 0.00 | 0.08 | 0.08 | 78 | 1012.1 |
| 20260509013003 | 6 | 158 | 0.0 | 0.0 | 0.00 | 0.08 | 0.08 | 78 | 1012.1 |
| 20260509012503 | 6 | 158 | 0.0 | 0.0 | 0.00 | 0.08 | 0.08 | 76 | 1011.9 |
| 20260509012003 | 6 | 151 | 0.0 | 0.0 | 0.00 | 0.08 | 0.08 | 76 | 1011.9 |
| 20260509010503 | 6 | 128 | 0.0 | 0.0 | 0.00 | 0.08 | 0.08 | 74 | 1011.5 |
| 20260509010003 | 6 | 128 | 0.0 | 0.0 | 0.00 | 0.08 | 0.08 | 74 | 1011.4 |
| 20260509005504 | 6 | 83 | 0.0 | 1.6 | 0.00 | 0.08 | 0.08 | 73 | 1011.3 |
| 20260509004502 | 7 | 83 | 0.0 | 0.0 | 0.00 | 0.08 | 0.08 | 71 | 1011.2 |
| 20260509004003 | 7 | 83 | 0.0 | 0.0 | 0.00 | 0.08 | 0.08 | 69 | 1011.2 |
| 20260509003503 | 7 | 83 | 0.0 | 0.0 | 0.00 | 0.08 | 0.08 | 68 | 1011.2 |
| 20260509003002 | 8 | 83 | 0.0 | 0.0 | 0.00 | 0.08 | 0.08 | 68 | 1011.1 |
| 20260509002503 | 8 | 83 | 0.0 | 0.0 | 0.00 | 0.08 | 0.08 | 67 | 1011.1 |
| 20260509002003 | 8 | 82 | 0.0 | 0.0 | 0.00 | 0.08 | 0.08 | 66 | 1011.1 |
| 20260509001503 | 8 | 82 | 0.0 | 0.0 | 0.00 | 0.08 | 0.08 | 65 | 1011.1 |
| 20260509001003 | 9 | 82 | 0.0 | 0.0 | 0.00 | 0.08 | 0.08 | 64 | 1011.1 |
| 20260509000503 | 9 | 83 | 0.0 | 1.6 | 0.00 | 0.08 | 0.08 | 63 | 1011.1 |
| 20260509000004 | 9 | 78 | 0.0 | 1.6 | 0.00 | 0.08 | 0.08 | 63 | 1011.0 |
| 20260508235503 | 10 | 78 | 1.6 | 3.2 | 0.00 | 0.08 | 0.08 | 62 | 1011.1 |
| 20260508235003 | 10 | 107 | 0.0 | 1.6 | 0.00 | 0.08 | 0.08 | 63 | 1011.0 |
| 20260508234003 | 10 | 113 | 0.0 | 3.2 | 0.00 | 0.08 | 0.08 | 60 | 1010.9 |
| 20260508233503 | 10 | 48 | 0.0 | 4.8 | 0.00 | 0.08 | 0.08 | 59 | 1010.9 |
| 20260508233003 | 11 | 39 | 3.2 | 4.8 | 0.00 | 0.08 | 0.08 | 58 | 1010.8 |
| 20260508232503 | 11 | 63 | 0.0 | 3.2 | 0.00 | 0.08 | 0.08 | 58 | 1010.8 |
| 20260508232003 | 11 | 51 | 1.6 | 3.2 | 0.00 | 0.08 | 0.08 | 56 | 1010.8 |
| 20260508231003 | 11 | 343 | 3.2 | 4.8 | 0.00 | 0.08 | 0.08 | 56 | 1010.9 |
| 20260508230503 | 11 | 6 | 1.6 | 4.8 | 0.00 | 0.08 | 0.08 | 57 | 1010.8 |
| 20260508225503 | 12 | 349 | 4.8 | 8.0 | 0.00 | 0.08 | 0.08 | 55 | 1010.9 |
| 20260508224504 | 12 | 23 | 1.6 | 4.8 | 0.00 | 0.08 | 0.08 | 57 | 1010.8 |
| 20260508224003 | 12 | 16 | 4.8 | 8.0 | 0.00 | 0.08 | 0.08 | 56 | 1010.9 |
| 20260508223503 | 12 | 342 | 6.4 | 9.7 | 0.00 | 0.08 | 0.08 | 53 | 1010.8 |
| 20260508223003 | 13 | 329 | 1.6 | 8.0 | 0.00 | 0.08 | 0.08 | 54 | 1010.9 |
| 20260508222503 | 13 | 322 | 3.2 | 8.0 | 0.00 | 0.08 | 0.08 | 54 | 1010.9 |
| 20260508222003 | 13 | 343 | 4.8 | 11.3 | 0.00 | 0.08 | 0.08 | 55 | 1010.9 |
| 20260508221503 | 13 | 33 | 3.2 | 14.5 | 0.00 | 0.08 | 0.08 | 54 | 1010.9 |
| 20260508221003 | 13 | 348 | 4.8 | 8.0 | 0.00 | 0.08 | 0.08 | 53 | 1010.9 |
| 20260508220003 | 13 | 48 | 4.8 | 4.8 | 0.00 | 0.08 | 0.08 | 54 | 1011.1 |
| 20260508215503 | 13 | 58 | 1.6 | 4.8 | 0.00 | 0.08 | 0.08 | 52 | 1011.1 |
| 20260508215003 | 13 | 73 | 3.2 | 4.8 | 0.00 | 0.08 | 0.08 | 52 | 1011.1 |
| 20260508214503 | 13 | 36 | 1.6 | 4.8 | 0.00 | 0.08 | 0.08 | 53 | 1011.1 |
| 20260508214003 | 13 | 282 | 0.0 | 3.2 | 0.00 | 0.08 | 0.08 | 53 | 1011.1 |
| 20260508213003 | 12 | 346 | 3.2 | 4.8 | 0.00 | 0.08 | 0.08 | 53 | 1011.2 |
| 20260508212503 | 13 | 99 | 3.2 | 4.8 | 0.00 | 0.08 | 0.08 | 54 | 1011.3 |
| 20260508212003 | 12 | 76 | 4.8 | 8.0 | 0.00 | 0.08 | 0.08 | 55 | 1011.3 |
| 20260508211504 | 12 | 77 | 1.6 | 4.8 | 0.00 | 0.08 | 0.08 | 55 | 1011.2 |
| 20260508211003 | 12 | 4 | 3.2 | 9.7 | 0.00 | 0.08 | 0.08 | 56 | 1011.2 |
| 20260508210503 | 12 | 4 | 3.2 | 4.8 | 0.00 | 0.08 | 0.08 | 58 | 1011.3 |
| 20260508210003 | 12 | 88 | 3.2 | 8.0 | 0.00 | 0.08 | 0.08 | 56 | 1011.4 |
| 20260508205503 | 12 | 31 | 4.8 | 9.7 | 0.00 | 0.08 | 0.08 | 58 | 1011.5 |
| 20260508205004 | 12 | 33 | 4.8 | 9.7 | 0.00 | 0.08 | 0.08 | 56 | 1011.4 |
| 20260508204003 | 12 | 336 | 4.8 | 12.9 | 0.00 | 0.08 | 0.08 | 58 | 1011.6 |
| 20260508203503 | 11 | 320 | 4.8 | 9.7 | 0.00 | 0.08 | 0.08 | 56 | 1011.6 |
| 20260508202503 | 12 | 359 | 4.8 | 11.3 | 0.00 | 0.10 | 0.08 | 61 | 1011.7 |
| 20260508202003 | 11 | 314 | 6.4 | 12.9 | 0.00 | 0.10 | 0.08 | 62 | 1011.8 |
| 20260508201503 | 11 | 340 | 9.7 | 12.9 | 0.00 | 0.10 | 0.08 | 61 | 1011.8 |
| 20260508201003 | 11 | 349 | 8.0 | 12.9 | 0.00 | 0.13 | 0.08 | 60 | 1011.8 |
| 20260508200503 | 11 | 348 | 8.0 | 11.3 | 0.00 | 0.13 | 0.08 | 61 | 1011.8 |
| 20260508200004 | 11 | 313 | 4.8 | 14.5 | 0.00 | 0.13 | 0.08 | 62 | 1011.8 |
| 20260508195004 | 12 | 6 | 4.8 | 11.3 | 0.00 | 0.13 | 0.08 | 63 | 1011.9 |
| 20260508194503 | 12 | 291 | 3.2 | 8.0 | 0.00 | 0.13 | 0.08 | 64 | 1012.0 |
| 20260508193503 | 11 | 351 | 3.2 | 4.8 | 0.00 | 0.13 | 0.08 | 63 | 1012.0 |
| 20260508192503 | 11 | 336 | 4.8 | 14.5 | 0.00 | 0.13 | 0.08 | 60 | 1012.1 |
| 20260508192004 | 11 | 325 | 4.8 | 11.3 | 0.00 | 0.13 | 0.08 | 63 | 1012.2 |
| 20260508191503 | 11 | 338 | 4.8 | 8.0 | 0.00 | 0.13 | 0.08 | 66 | 1012.2 |
| 20260508191003 | 11 | 334 | 4.8 | 14.5 | 0.00 | 0.13 | 0.08 | 60 | 1012.2 |
| 20260508190504 | 11 | 26 | 11.3 | 14.5 | 0.00 | 0.13 | 0.08 | 62 | 1012.1 |
| 20260508190003 | 11 | 345 | 3.2 | 9.7 | 0.00 | 0.13 | 0.08 | 57 | 1012.0 |
| 20260508185504 | 11 | 37 | 9.7 | 19.3 | 0.00 | 0.13 | 0.08 | 62 | 1012.0 |
| 20260508185004 | 11 | 357 | 8.0 | 16.1 | 0.00 | 0.13 | 0.08 | 66 | 1012.2 |
| 20260508184503 | 11 | 70 | 4.8 | 14.5 | 0.00 | 0.13 | 0.08 | 66 | 1012.2 |
| 20260508184003 | 11 | 37 | 4.8 | 12.9 | 0.00 | 0.13 | 0.08 | 64 | 1012.2 |
| 20260508183503 | 11 | 1 | 6.4 | 9.7 | 0.00 | 0.13 | 0.08 | 63 | 1012.2 |
| 20260508182503 | 12 | 17 | 3.2 | 11.3 | 0.00 | 0.13 | 0.08 | 55 | 1012.2 |
| 20260508182004 | 12 | 198 | 1.6 | 9.7 | 0.00 | 0.13 | 0.08 | 52 | 1012.2 |
| 20260508181503 | 12 | 141 | 3.2 | 12.9 | 0.00 | 0.13 | 0.08 | 52 | 1012.3 |
| 20260508180504 | 11 | 300 | 3.2 | 12.9 | 0.00 | 0.13 | 0.08 | 54 | 1012.4 |
| 20260508180003 | 11 | 162 | 1.6 | 9.7 | 0.00 | 0.13 | 0.08 | 55 | 1012.4 |
| 20260508175504 | 11 | 323 | 6.4 | 12.9 | 0.00 | 0.13 | 0.08 | 51 | 1012.4 |
| 20260508175004 | 12 | 295 | 6.4 | 14.5 | 0.00 | 0.13 | 0.08 | 54 | 1012.4 |
| 20260508174503 | 12 | 194 | 1.6 | 4.8 | 0.00 | 0.13 | 0.08 | 58 | 1012.5 |
| 20260508174004 | 12 | 60 | 3.2 | 9.7 | 0.00 | 0.13 | 0.08 | 55 | 1012.5 |
| 20260508173503 | 12 | 271 | 4.8 | 12.9 | 0.00 | 0.13 | 0.08 | 62 | 1012.6 |
| 20260508173003 | 11 | 201 | 3.2 | 14.5 | 0.00 | 0.13 | 0.08 | 62 | 1012.5 |
| 20260508172503 | 11 | 277 | 3.2 | 9.7 | 0.00 | 0.13 | 0.08 | 61 | 1012.6 |
| 20260508172004 | 11 | 122 | 3.2 | 4.8 | 0.00 | 0.13 | 0.08 | 61 | 1012.7 |
| 20260508171503 | 11 | 268 | 0.0 | 4.8 | 0.00 | 0.13 | 0.08 | 63 | 1012.8 |
| 20260508171004 | 11 | 143 | 3.2 | 9.7 | 0.00 | 0.13 | 0.08 | 60 | 1012.9 |
| 20260508170503 | 11 | 203 | 3.2 | 11.3 | 0.00 | 0.13 | 0.08 | 63 | 1012.9 |
| 20260508170003 | 11 | 277 | 4.8 | 14.5 | 0.00 | 0.13 | 0.08 | 62 | 1012.9 |
| 20260508165503 | 11 | 219 | 1.6 | 8.0 | 0.00 | 0.13 | 0.08 | 66 | 1013.0 |
| 20260508165004 | 10 | 279 | 4.8 | 9.7 | 0.00 | 0.13 | 0.08 | 66 | 1013.0 |
| 20260508164003 | 10 | 250 | 3.2 | 11.3 | 0.00 | 0.13 | 0.08 | 62 | 1013.2 |
| 20260508163504 | 10 | 119 | 1.6 | 4.8 | 0.00 | 0.13 | 0.08 | 66 | 1013.2 |
| 20260508163003 | 10 | 267 | 3.2 | 9.7 | 0.00 | 0.13 | 0.08 | 63 | 1013.2 |
| 20260508162504 | 9 | 286 | 3.2 | 8.0 | 0.00 | 0.13 | 0.08 | 65 | 1013.3 |
| 20260508162003 | 9 | 299 | 4.8 | 9.7 | 0.00 | 0.13 | 0.08 | 65 | 1013.3 |
| 20260508161504 | 9 | 254 | 3.2 | 4.8 | 0.00 | 0.13 | 0.08 | 68 | 1013.3 |
| 20260508161004 | 9 | 255 | 4.8 | 12.9 | 0.00 | 0.13 | 0.08 | 69 | 1013.4 |
| 20260508160504 | 9 | 316 | 8.0 | 14.5 | 0.00 | 0.13 | 0.08 | 69 | 1013.4 |
| 20260508160004 | 9 | 315 | 9.7 | 12.9 | 0.00 | 0.13 | 0.08 | 64 | 1013.3 |
| 20260508155503 | 9 | 308 | 4.8 | 9.7 | 0.00 | 0.13 | 0.08 | 65 | 1013.3 |
| 20260508155004 | 10 | 304 | 6.4 | 12.9 | 0.00 | 0.13 | 0.08 | 66 | 1013.2 |
| 20260508154504 | 10 | 236 | 3.2 | 4.8 | 0.00 | 0.13 | 0.08 | 67 | 1013.2 |
| 20260508154003 | 10 | 315 | 3.2 | 9.7 | 0.00 | 0.13 | 0.08 | 68 | 1013.2 |
| 20260508153504 | 10 | 273 | 3.2 | 11.3 | 0.00 | 0.13 | 0.08 | 70 | 1013.3 |
| 20260508153004 | 10 | 301 | 3.2 | 9.7 | 0.00 | 0.13 | 0.08 | 68 | 1013.2 |
| 20260508152504 | 10 | 250 | 4.8 | 11.3 | 0.00 | 0.13 | 0.08 | 70 | 1013.3 |
| 20260508152004 | 9 | 278 | 1.6 | 4.8 | 0.00 | 0.13 | 0.08 | 78 | 1013.2 |
| 20260508151504 | 9 | 189 | 3.2 | 9.7 | 0.00 | 0.13 | 0.08 | 78 | 1013.3 |
| 20260508151003 | 8 | 232 | 0.0 | 9.7 | 0.00 | 0.13 | 0.08 | 81 | 1013.2 |
| 20260508145504 | 8 | 217 | 1.6 | 12.9 | 0.00 | 0.13 | 0.08 | 82 | 1013.1 |
| 20260508145004 | 7 | 243 | 6.4 | 11.3 | 0.00 | 0.13 | 0.08 | 79 | 1013.2 |
| 20260508144504 | 7 | 247 | 3.2 | 4.8 | 0.00 | 0.13 | 0.08 | 83 | 1013.1 |
| 20260508144003 | 7 | 268 | 1.6 | 4.8 | 0.00 | 0.13 | 0.08 | 83 | 1013.1 |
| 20260508143503 | 7 | 239 | 3.2 | 8.0 | 0.00 | 0.13 | 0.08 | 83 | 1013.0 |
| 20260508143004 | 7 | 218 | 3.2 | 4.8 | 0.00 | 0.13 | 0.08 | 88 | 1013.0 |
| 20260508142504 | 7 | 245 | 1.6 | 8.0 | 0.00 | 0.13 | 0.08 | 89 | 1013.1 |
| 20260508142004 | 6 | 134 | 1.6 | 4.8 | 0.00 | 0.13 | 0.08 | 90 | 1013.1 |
| 20260508141504 | 6 | 187 | 1.6 | 11.3 | 0.00 | 0.13 | 0.08 | 89 | 1013.0 |
| 20260508140004 | 6 | 279 | 1.6 | 8.0 | 0.03 | 0.13 | 0.08 | 92 | 1013.2 |
| 20260508135504 | 6 | 183 | 3.2 | 8.0 | 0.03 | 0.13 | 0.08 | 92 | 1013.1 |